Погода в Озерном

Россия / Республика Мордовия     54°13′54″N   45°17′11″E
темп.,
°C
ветер,
м/с
пор.,
м/с
влажн.,
%
обл.,
%
осадки,
мм/ч
давл.,
гПа
погр.,
м
3 марта, ср
ср300:00−5зсз479694 0.0 1004143
03:00−6зсз499687 0.1 1005179
06:00−3сз6109292 0.1 1005673
09:00−5сз7108896 0.1 1007791
12:00−5сз71090100 0.1 1009746
15:00−5сз71089100 0.2 1010759
18:00−5зсз51090100 0.1 1010709
21:00−9з499084 0.1 1011148
4 марта, чт
чт400:00−6зюз6139546 0.0 1008342
03:00−3зюз7139371 0.1 1007664
06:00−3зюз71492100 0.2 1004827
09:00−2зюз91591100 0.3 1001683
12:000зюз101698100 0.6 9991065
15:00+1з91490100 0.8 10001023
18:000зюз71394100 0.1 1000705
21:00−2сз3796100 1.8 1001360
5 марта, пт
пт500:00−4зсз1198100 0.8 100021
03:00−4ссв1297100 2.1 99946
06:00−4ссв3697100 1.4 1000266
09:00−5с3694100 2.0 1002314
12:00−5с4691100 0.1 1005495
15:00−6ссз358883 0.1 1008471
18:00−11ссз12911 0.0 101021
21:00−13ююз128815 0.0 101321
6 марта, сб
сб600:00−12ююз229082 0.0 101321
03:00−12ююз239290 0.0 101321
06:00−12ююз3496100 0.1 101385
09:00−10зюз479481 0.1 1012255
12:00−8зсз589272 0.0 1012502
15:00−7зсз698986 0.1 1012770
18:00−11сз3494100 0.1 101365
21:00−12сз389699 0.3 1015218
7 марта, вс
вс700:00−17зсз349576 0.1 101647
03:00−19зюз339740 0.1 101632
06:00−19юз349610 0.0 101577
09:00−14юз6128914 0.0 1013331
12:00−10ююз9158080 0.0 1009708
15:00−7ююз11178090 0.0 10051051
18:00−6юз101891100 0.4 10011118
21:00−5юз101893100 1.8 9971112